Weather in Moryak-Rybolov

Russia / Primorsky Krai     43°21′01″N   134°47′31″E
temp.,
°C
wind,
m/s
gust,
m/s
humid.,
%
clouds,
%
prec.,
mm/h
press.,
hPa
HPBL,
m
14 april, wed
wed1401:00+1w23535 0.0 1010107
04:00+1w335418 0.0 1011173
07:000w354875 0.0 1012736
10:00+2wsw46395 0.0 1012834
13:00+2ssw10105177 0.0 10111034
16:00+4sw12155673 0.0 10091003
19:00+3sw1115651 0.0 1011509
22:00+2wsw7108829 0.0 1013167
15 april, thu
thu1501:00+2wsw56851 0.0 1013126
04:00+1w45822 0.0 1013106
07:00+1w22744 0.0 101540
10:00+5sw34555 0.0 1015209
13:00+4ssw611665 0.0 1016261
16:00+6sw111656100 0.0 1015354
19:00+4ssw61169100 0.0 1016126
22:00+3sw5885100 0.0 101885
16 april, fri
fri1601:00+3sw5887100 0.0 101889
04:00+3sw46956 0.0 101771
07:00+3sw229797 0.0 101723
10:00+4s1591100 0.0 1017170
13:00+5ese3887100 0.0 1015268
16:00+4ese4794100 0.2 1012175
19:00+4se4899100 1.4 1009142
22:00+4ssw47100100 3.9 1008148
17 april, sat
sat1701:00+4sw3119754 0.4 1008314
04:00+3sw57958 0.4 100890
07:00+3s33941 0.0 100840
10:00+4s2290100 0.0 1009140
13:00+4ssw5788100 0.0 1009244
16:00+4ssw45855 0.1 1005332
19:00+4ssw479210 0.0 1008138
22:00+3w11931 0.0 100810
18 april, sun
sun1801:00+3wnw11923 0.0 100712
04:00+3nnw228747 0.0 100614
07:00+3n2282100 0.0 100615
10:00+4se1185100 0.2 1006150
13:00+3ene4496100 0.4 1006144
16:00+5sw2482100 0.4 1005330
19:00+7wnw5869100 0.0 1005237
22:00+5w447610 0.0 101034